FW8756 Weather Reports


Display with metric or nautical units.
time (UTC)temp
F
wind
direction
speed
MPH
gust
MPH
rain 1hr
in
rain 24hr
in
rain mn
in
humidity
%
barometer
mb
20260905152625 86 140 0.0 1.0 0.00 0.00 0.00 76 1013.6
20260905152120 86 169 0.0 0.0 0.00 0.00 0.00 76 1013.6
20260905151615 88 159 0.0 0.0 0.00 0.00 0.00 74 1013.7
20260905151110 88 151 0.0 0.0 0.00 0.00 0.00 74 1013.6
20260905150606 88 183 1.0 1.0 0.00 0.00 0.00 75 1013.5
20260905150103 87 189 1.0 2.0 0.00 0.00 0.00 78 1013.7
20260905145556 86 149 0.0 0.0 0.00 0.00 0.00 79 1013.6
20260905145055 86 151 0.0 0.0 0.00 0.00 0.00 80 1013.5
20260905144551 85 180 2.0 3.0 0.00 0.00 0.00 81 1013.4
20260905144050 85 190 0.0 0.0 0.00 0.00 0.00 82 1013.4
20260905143549 84 154 0.0 0.0 0.00 0.00 0.00 84 1013.4
20260905143045 84 251 3.0 3.0 0.00 0.00 0.00 84 1013.4
20260905142543 83 165 0.0 0.0 0.00 0.00 0.00 84 1013.3
20260905142038 84 183 0.0 0.0 0.00 0.00 0.00 84 1013.2
20260905141533 84 152 0.0 0.0 0.00 0.00 0.00 84 1013.3
20260905141029 83 144 0.0 0.0 0.00 0.00 0.00 84 1013.4
20260905140524 84 148 0.0 0.0 0.00 0.00 0.00 84 1013.4
20260905140023 83 184 0.0 0.0 0.00 0.00 0.00 84 1013.5
20260905135519 84 157 0.0 0.0 0.00 0.00 0.00 84 1013.3
20260905135013 84 203 0.0 0.0 0.00 0.00 0.00 83 1013.3
20260905134508 85 166 0.0 0.0 0.00 0.00 0.00 83 1013.2
20260905134007 84 148 0.0 0.0 0.00 0.00 0.00 84 1013.3
20260905133503 84 152 0.0 0.0 0.00 0.00 0.00 86 1013.2
20260905133002 83 142 0.0 0.0 0.00 0.00 0.00 88 1013.0
20260905132457 82 154 0.0 0.0 0.00 0.00 0.00 89 1013.2
20260905131951 82 149 0.0 0.0 0.00 0.00 0.00 90 1013.1
20260905131447 81 143 0.0 0.0 0.00 0.00 0.00 91 1013.2
20260905130947 80 147 0.0 0.0 0.00 0.00 0.00 92 1013.1
20260905130442 79 143 0.0 0.0 0.00 0.00 0.00 92 1013.3
20260905125941 79 149 0.0 0.0 0.00 0.00 0.00 92 1013.0
20260905125436 78 153 0.0 0.0 0.00 0.00 0.00 92 1013.0
20260905124932 78 134 0.0 0.0 0.00 0.00 0.00 92 1013.3
20260905124428 78 148 0.0 0.0 0.00 0.00 0.00 92 1013.0
20260905123928 78 151 0.0 0.0 0.00 0.00 0.00 92 1012.9
20260905123425 78 157 0.0 0.0 0.00 0.00 0.00 92 1012.9
20260905122920 78 154 0.0 0.0 0.00 0.00 0.00 92 1012.8
20260905122419 77 156 0.0 0.0 0.00 0.00 0.00 92 1012.7
20260905121915 77 152 0.0 0.0 0.00 0.00 0.00 92 1012.6
20260905121410 77 149 0.0 0.0 0.00 0.00 0.00 92 1012.8
20260905120910 77 156 0.0 0.0 0.00 0.00 0.00 92 1012.7
20260905120410 77 156 0.0 0.0 0.00 0.00 0.00 92 1012.7
20260905115905 77 157 0.0 0.0 0.00 0.00 0.00 92 1012.3
20260905115404 77 157 0.0 0.0 0.00 0.00 0.00 92 1012.3
20260905114859 77 157 0.0 0.0 0.00 0.00 0.00 92 1012.1
20260905114358 77 156 0.0 0.0 0.00 0.00 0.00 92 1012.5
20260905113852 77 159 0.0 0.0 0.00 0.00 0.00 92 1012.1
20260905113348 77 152 0.0 0.0 0.00 0.00 0.00 92 1012.3
20260905112843 77 150 0.0 0.0 0.00 0.00 0.00 92 1012.5
20260905112337 77 153 0.0 0.0 0.00 0.00 0.00 92 1012.2
20260905111833 77 155 0.0 0.0 0.00 0.00 0.00 92 1011.9
20260905111327 77 160 0.0 0.0 0.00 0.00 0.00 92 1012.1
20260905110826 77 157 0.0 0.0 0.00 0.00 0.00 91 1011.9
20260905110320 77 163 0.0 0.0 0.00 0.00 0.00 91 1011.9
20260905105816 77 158 0.0 0.0 0.00 0.00 0.00 91 1011.9
20260905105315 77 161 0.0 0.0 0.00 0.00 0.00 91 1011.8
20260905104809 77 157 0.0 0.0 0.00 0.00 0.00 91 1011.9
20260905104306 78 143 0.0 0.0 0.00 0.00 0.00 91 1011.7
20260905103805 77 147 0.0 0.0 0.00 0.00 0.00 91 1011.6
20260905103301 78 162 0.0 0.0 0.00 0.00 0.00 91 1011.6
20260905102756 78 160 0.0 0.0 0.00 0.00 0.00 91 1011.4
20260905102253 78 157 0.0 0.0 0.00 0.00 0.00 91 1011.8
20260905101752 78 154 0.0 0.0 0.00 0.00 0.00 91 1011.6
20260905101251 78 161 0.0 0.0 0.00 0.00 0.00 91 1011.7
20260905100746 78 164 0.0 0.0 0.00 0.00 0.00 91 1011.7
20260905100242 78 158 0.0 0.0 0.00 0.00 0.00 91 1011.6
20260905095741 78 162 0.0 0.0 0.00 0.00 0.00 90 1011.6
20260905095241 78 163 0.0 0.0 0.00 0.00 0.00 90 1011.8
20260905094736 78 164 0.0 0.0 0.00 0.00 0.00 90 1011.5
20260905094231 78 156 0.0 0.0 0.00 0.00 0.00 90 1011.6
20260905093730 78 155 0.0 0.0 0.00 0.00 0.00 90 1011.6
20260905093227 78 160 0.0 0.0 0.00 0.00 0.00 90 1011.8
20260905092721 78 160 0.0 0.0 0.00 0.00 0.00 90 1011.6
20260905092217 79 158 0.0 0.0 0.00 0.00 0.00 89 1011.7
20260905091711 79 162 0.0 0.0 0.00 0.00 0.00 89 1011.8
20260905091206 79 163 0.0 0.0 0.00 0.00 0.00 89 1011.7
20260905090705 79 162 0.0 0.0 0.00 0.00 0.00 89 1011.7
20260905090201 79 162 0.0 0.0 0.00 0.00 0.00 89 1011.7
20260905085659 79 161 0.0 0.0 0.00 0.00 0.00 88 1011.8
20260905085155 79 162 0.0 0.0 0.00 0.00 0.00 88 1011.5
20260905084655 79 160 0.0 0.0 0.00 0.00 0.00 88 1011.7
20260905084149 79 162 0.0 0.0 0.00 0.00 0.00 88 1011.7
20260905083644 80 160 0.0 0.0 0.00 0.00 0.00 88 1012.0
20260905083140 80 163 0.0 0.0 0.00 0.00 0.00 88 1011.8
20260905082636 80 163 0.0 0.0 0.00 0.00 0.00 87 1011.6
20260905082131 80 163 0.0 0.0 0.00 0.00 0.00 87 1011.6
20260905081626 80 171 0.0 0.0 0.00 0.00 0.00 87 1011.7
20260905081126 80 174 0.0 0.0 0.00 0.00 0.00 87 1011.5
20260905080621 80 171 0.0 0.0 0.00 0.00 0.00 87 1011.5
20260905080115 80 162 0.0 0.0 0.00 0.00 0.00 87 1011.5
20260905075614 80 169 0.0 0.0 0.00 0.00 0.00 87 1011.7
20260905075108 80 161 0.0 0.0 0.00 0.00 0.00 87 1011.7
20260905074607 80 163 0.0 0.0 0.00 0.00 0.00 87 1011.8
20260905074103 80 161 0.0 1.0 0.00 0.00 0.00 87 1011.6
20260905073558 80 172 0.0 0.0 0.00 0.00 0.00 87 1011.6
20260905073054 80 162 0.0 0.0 0.00 0.00 0.00 87 1011.6
20260905072553 80 163 0.0 0.0 0.00 0.00 0.00 87 1011.9
20260905072049 80 164 0.0 0.0 0.00 0.00 0.00 87 1012.0
20260905071546 80 163 0.0 0.0 0.00 0.00 0.00 87 1011.9
20260905071040 80 156 0.0 0.0 0.00 0.00 0.00 86 1011.9
20260905070536 80 165 0.0 0.0 0.00 0.00 0.00 86 1012.2
20260905070031 81 164 0.0 0.0 0.00 0.00 0.00 86 1012.2
20260905065529 81 160 0.0 0.0 0.00 0.00 0.00 86 1012.2
20260905065024 81 159 0.0 0.0 0.00 0.00 0.00 86 1012.6
20260905064519 81 160 0.0 0.0 0.00 0.00 0.00 86 1012.1
20260905064014 81 161 0.0 0.0 0.00 0.00 0.00 85 1012.6
20260905063513 81 160 0.0 0.0 0.00 0.00 0.00 85 1012.1
20260905063010 81 163 0.0 0.0 0.00 0.00 0.00 85 1012.3
20260905062509 81 147 0.0 0.0 0.00 0.00 0.00 85 1012.1
20260905062004 81 170 0.0 0.0 0.00 0.00 0.00 85 1012.2
20260905061500 81 160 0.0 0.0 0.00 0.00 0.00 84 1012.2
20260905060958 81 164 0.0 0.0 0.00 0.00 0.00 84 1012.1
20260905060454 81 177 0.0 0.0 0.00 0.00 0.00 84 1012.0
20260905055949 81 144 0.0 0.0 0.00 0.00 0.00 84 1012.2
20260905055448 81 162 0.0 0.0 0.00 0.00 0.00 84 1012.2
20260905054943 81 162 0.0 0.0 0.00 0.00 0.00 85 1012.3
20260905054439 81 162 0.0 0.0 0.00 0.00 0.00 85 1012.2
20260905053939 81 164 0.0 0.0 0.00 0.00 0.00 85 1012.1
20260905053434 80 159 0.0 0.0 0.00 0.00 0.00 85 1012.5
20260905052930 81 157 0.0 0.0 0.00 0.00 0.00 85 1012.2
20260905052429 80 164 0.0 0.0 0.00 0.00 0.00 85 1012.2
20260905051928 80 160 0.0 0.0 0.00 0.00 0.00 85 1012.5
20260905051424 80 160 0.0 0.0 0.00 0.00 0.00 85 1012.3
20260905050922 81 157 0.0 0.0 0.00 0.00 0.00 85 1012.3
20260905050417 81 161 0.0 0.0 0.00 0.00 0.00 85 1012.2
20260905045913 81 161 0.0 0.0 0.00 0.00 0.00 85 1012.3
20260905045408 81 161 0.0 0.0 0.00 0.00 0.00 85 1012.3
20260905044903 81 162 0.0 0.0 0.00 0.00 0.00 85 1012.1
20260905044358 81 162 0.0 0.0 0.00 0.00 0.00 85 1012.2
20260905043856 81 161 0.0 0.0 0.00 0.00 0.00 85 1012.5
20260905043352 81 159 0.0 0.0 0.00 0.00 0.00 85 1012.3
20260905042846 81 160 0.0 0.0 0.00 0.00 0.00 85 1012.1
20260905042346 81 163 0.0 0.0 0.00 0.00 0.00 85 1012.3
20260905041841 81 167 0.0 0.0 0.00 0.00 0.00 84 1012.1
20260905041337 82 162 0.0 0.0 0.00 0.00 0.00 84 1012.1
20260905040832 82 156 0.0 0.0 0.00 0.00 0.00 84 1012.3
20260905040331 82 156 0.0 0.0 0.00 0.00 0.00 84 1012.5
20260905035830 82 162 0.0 0.0 0.00 0.00 0.00 84 1012.5
20260905035326 82 160 0.0 0.0 0.00 0.00 0.00 83 1012.2
20260905034823 82 161 0.0 0.0 0.00 0.00 0.00 83 1012.7
20260905034318 82 161 0.0 0.0 0.00 0.00 0.00 83 1012.3
20260905033816 82 145 0.0 0.0 0.00 0.00 0.00 83 1012.5
20260905033312 82 162 0.0 0.0 0.00 0.00 0.00 83 1012.6
20260905032811 82 163 0.0 0.0 0.00 0.00 0.00 83 1012.5
20260905032307 82 160 0.0 0.0 0.00 0.00 0.00 83 1012.5
20260905031802 82 161 0.0 0.0 0.00 0.00 0.00 83 1012.3
20260905031258 82 161 0.0 0.0 0.00 0.00 0.00 83 1012.3
20260905030753 82 161 0.0 0.0 0.00 0.00 0.00 82 1012.5
20260905030248 83 162 0.0 0.0 0.00 0.00 0.00 82 1012.3
20260905025742 83 159 0.0 0.0 0.00 0.00 0.00 82 1012.2
20260905025238 83 160 0.0 0.0 0.00 0.00 0.00 82 1012.5
20260905024733 83 157 0.0 0.0 0.00 0.00 0.00 81 1012.1
20260905024229 83 160 0.0 0.0 0.00 0.00 0.00 81 1012.3
20260905023729 83 158 0.0 0.0 0.00 0.00 0.00 81 1012.3
20260905023224 84 157 0.0 0.0 0.00 0.00 0.00 80 1012.5
20260905022724 84 158 0.0 0.0 0.00 0.00 0.00 80 1011.9
20260905022219 84 154 0.0 0.0 0.00 0.00 0.00 80 1012.1
20260905021713 84 146 0.0 0.0 0.00 0.00 0.00 80 1012.1
20260905021208 84 142 0.0 0.0 0.00 0.00 0.00 80 1011.7
20260905020703 84 154 0.0 0.0 0.00 0.00 0.00 79 1012.0
20260905020158 85 151 0.0 0.0 0.00 0.00 0.00 79 1012.0
20260905015657 85 158 0.0 0.0 0.00 0.00 0.00 79 1011.8
20260905015156 85 165 0.0 0.0 0.00 0.00 0.00 78 1011.7
20260905014655 85 162 0.0 0.0 0.00 0.00 0.00 78 1011.7
20260905014151 85 166 0.0 0.0 0.00 0.00 0.00 77 1011.7
20260905013648 85 165 0.0 0.0 0.00 0.00 0.00 76 1011.5
20260905013143 86 165 0.0 0.0 0.00 0.00 0.00 76 1011.5
20260905012638 86 167 0.0 0.0 0.00 0.00 0.00 75 1011.3
20260905012134 86 167 0.0 0.0 0.00 0.00 0.00 75 1011.4
20260905011630 86 165 0.0 0.0 0.00 0.00 0.00 74 1011.4
20260905011126 86 165 0.0 0.0 0.00 0.00 0.00 73 1011.3
20260905010620 87 157 0.0 0.0 0.00 0.00 0.00 73 1011.4
20260905010117 87 163 0.0 0.0 0.00 0.00 0.00 73 1011.3
20260905005612 87 170 0.0 0.0 0.00 0.00 0.00 72 1011.2
20260905005107 87 157 0.0 0.0 0.00 0.00 0.00 72 1011.1
20260905004602 87 155 0.0 0.0 0.00 0.00 0.00 72 1011.1
20260905004057 88 148 0.0 0.0 0.00 0.00 0.00 72 1011.0
20260905003553 88 167 0.0 0.0 0.00 0.00 0.00 72 1010.9
20260905003048 88 105 0.0 0.0 0.00 0.00 0.00 71 1010.9
20260905002544 89 196 0.0 0.0 0.00 0.00 0.00 70 1011.0
20260905002043 89 157 0.0 0.0 0.00 0.00 0.00 68 1011.0
20260905001533 89 162 0.0 0.0 0.00 0.00 0.00 67 1010.8
20260905001032 89 158 0.0 0.0 0.00 0.00 0.00 67 1010.6
20260905000528 89 147 0.0 0.0 0.00 0.00 0.00 66 1010.8
20260905000024 90 157 1.0 2.0 0.00 0.00 0.00 66 1010.7
20260904235519 91 177 2.0 2.0 0.00 0.00 0.00 65 1010.9
20260904235019 90 156 1.0 1.0 0.00 0.00 0.00 66 1011.0
20260904234518 91 174 2.0 2.0 0.00 0.00 0.00 65 1010.7
20260904234015 91 186 0.0 0.0 0.00 0.00 0.00 64 1010.9
20260904233510 92 168 0.0 1.0 0.00 0.00 0.00 61 1010.6
20260904233006 92 167 0.0 0.0 0.00 0.00 0.00 62 1010.9
20260904232502 92 153 0.0 0.0 0.00 0.00 0.00 60 1010.7
20260904231958 92 221 2.0 2.0 0.00 0.00 0.00 60 1011.0
20260904231454 91 181 1.0 1.0 0.00 0.00 0.00 61 1011.0
20260904230948 91 153 0.0 0.0 0.00 0.00 0.00 61 1010.8
20260904230447 91 165 2.0 5.0 0.00 0.00 0.00 62 1010.9
20260904225943 92 220 0.0 1.0 0.00 0.00 0.00 61 1010.8
20260904225440 91 139 0.0 0.0 0.00 0.00 0.00 62 1010.8
20260904224935 90 141 0.0 0.0 0.00 0.00 0.00 63 1010.8
20260904224431 91 169 1.0 1.0 0.00 0.00 0.00 62 1011.0
20260904223930 90 160 0.0 0.0 0.00 0.00 0.00 63 1011.1
20260904223429 90 147 0.0 0.0 0.00 0.00 0.00 63 1011.1
20260904222925 89 152 0.0 0.0 0.00 0.00 0.00 63 1011.0
20260904222421 90 147 0.0 0.0 0.00 0.00 0.00 64 1011.2
20260904221920 90 145 1.0 1.0 0.00 0.00 0.00 63 1011.3
20260904221415 92 158 2.0 2.0 0.00 0.00 0.00 62 1011.4
20260904220911 93 187 0.0 0.0 0.00 0.00 0.00 58 1011.3
20260904220410 93 189 0.0 0.0 0.00 0.00 0.00 59 1011.1
20260904215905 93 172 1.0 1.0 0.00 0.00 0.00 60 1011.1
20260904215400 92 154 0.0 0.0 0.00 0.00 0.00 62 1011.1
20260904214856 92 151 2.0 2.0 0.00 0.00 0.00 61 1011.3
20260904214352 92 241 3.0 5.0 0.00 0.00 0.00 61 1011.3
20260904213850 93 164 0.0 1.0 0.00 0.00 0.00 62 1011.3
20260904213345 90 154 0.0 0.0 0.00 0.00 0.00 65 1011.3
20260904212842 92 146 0.0 0.0 0.00 0.00 0.00 64 1011.4
20260904212341 92 168 0.0 0.0 0.00 0.00 0.00 63 1011.4
20260904211837 92 241 3.0 5.0 0.00 0.00 0.00 63 1011.4
20260904211331 92 167 0.0 1.0 0.00 0.00 0.00 64 1011.6
20260904210826 92 202 1.0 2.0 0.00 0.00 0.00 64 1011.6
20260904210320 91 215 0.0 1.0 0.00 0.00 0.00 64 1011.4
20260904205817 91 221 3.0 3.0 0.00 0.00 0.00 66 1012.0
20260904205312 92 183 0.0 0.0 0.00 0.00 0.00 65 1011.7
20260904204809 91 235 1.0 3.0 0.00 0.00 0.00 64 1012.0
20260904204304 90 160 1.0 1.0 0.00 0.00 0.00 65 1011.9
20260904203801 90 225 0.0 0.0 0.00 0.00 0.00 66 1011.8
20260904203256 89 93 0.0 1.0 0.00 0.00 0.00 68 1012.1
20260904202752 90 192 0.0 0.0 0.00 0.00 0.00 67 1012.2
20260904202249 90 198 2.0 3.0 0.00 0.00 0.00 68 1012.1
20260904201744 89 149 0.0 1.0 0.00 0.00 0.00 69 1012.2
20260904201243 90 247 4.0 5.0 0.00 0.00 0.00 69 1012.6
20260904200738 91 220 3.0 3.0 0.00 0.00 0.00 68 1012.3
20260904200233 91 253 4.0 5.0 0.00 0.00 0.00 68 1012.6
20260904195732 88 272 2.0 3.0 0.00 0.00 0.00 70 1012.7
20260904195231 90 165 1.0 1.0 0.00 0.00 0.00 68 1012.3
20260904194726 91 165 1.0 2.0 0.00 0.00 0.00 67 1012.6
20260904194225 90 161 0.0 1.0 0.00 0.00 0.00 68 1012.7
20260904193721 90 185 0.0 1.0 0.00 0.00 0.00 69 1012.9
20260904193217 90 113 1.0 1.0 0.00 0.00 0.00 70 1012.7
20260904192717 92 138 1.0 1.0 0.00 0.00 0.00 66 1012.8
20260904192212 92 219 5.0 7.0 0.00 0.00 0.00 66 1012.8
20260904191709 91 143 2.0 3.0 0.00 0.00 0.00 68 1013.0
20260904191205 88 172 3.0 3.0 0.00 0.00 0.00 71 1012.6
20260904190701 89 137 0.0 1.0 0.00 0.00 0.00 70 1013.0
20260904190156 89 159 0.0 0.0 0.00 0.00 0.00 70 1013.0
20260904185653 91 150 3.0 3.0 0.00 0.00 0.00 70 1012.9
20260904185148 89 232 3.0 5.0 0.00 0.00 0.00 70 1013.1
20260904184646 92 267 6.0 7.0 0.00 0.00 0.00 67 1013.1
20260904184142 92 250 4.0 6.0 0.00 0.00 0.00 65 1013.3
20260904183638 93 215 2.0 3.0 0.00 0.00 0.00 66 1013.3
20260904183137 93 251 6.0 7.0 0.00 0.00 0.00 66 1013.1
20260904182632 94 262 2.0 3.0 0.00 0.00 0.00 65 1013.3
20260904182127 93 148 0.0 1.0 0.00 0.00 0.00 67 1013.5
20260904181624 92 260 4.0 5.0 0.00 0.00 0.00 67 1013.6
20260904181124 90 236 5.0 6.0 0.00 0.00 0.00 69 1013.7
20260904180619 91 263 9.0 11.0 0.00 0.00 0.00 70 1013.8
20260904180115 92 244 6.0 8.0 0.00 0.00 0.00 68 1014.0
20260904175613 91 168 1.0 1.0 0.00 0.00 0.00 69 1013.9
20260904175112 93 237 3.0 5.0 0.00 0.00 0.00 67 1013.9
20260904174607 94 210 3.0 6.0 0.00 0.00 0.00 65 1013.8
20260904174104 94 152 1.0 2.0 0.00 0.00 0.00 65 1013.5
20260904173603 94 161 0.0 0.0 0.00 0.00 0.00 66 1013.7
20260904173059 89 171 1.0 1.0 0.00 0.00 0.00 71 1013.5
20260904172555 91 169 1.0 1.0 0.00 0.00 0.00 70 1013.7
20260904172054 90 147 2.0 2.0 0.00 0.00 0.00 68 1013.7
20260904171549 95 210 6.0 8.0 0.00 0.00 0.00 67 1013.9
20260904171045 94 151 1.0 1.0 0.00 0.00 0.00 66 1013.8
20260904170540 91 156 0.0 0.0 0.00 0.00 0.00 70 1014.0
20260904170036 93 115 1.0 1.0 0.00 0.00 0.00 69 1013.9
20260904165535 92 163 1.0 2.0 0.00 0.00 0.00 70 1014.1
20260904165034 91 254 2.0 3.0 0.00 0.00 0.00 70 1014.3
20260904164530 89 138 1.0 2.0 0.00 0.00 0.00 72 1014.3
20260904164026 91 159 2.0 5.0 0.00 0.00 0.00 70 1014.1
20260904163525 91 168 2.0 3.0 0.00 0.00 0.00 71 1014.1
20260904163020 91 156 0.0 0.0 0.00 0.00 0.00 70 1014.0
20260904162515 91 118 3.0 3.0 0.00 0.00 0.00 71 1013.8
20260904162010 91 156 1.0 1.0 0.00 0.00 0.00 72 1013.9
20260904161505 90 154 0.0 0.0 0.00 0.00 0.00 74 1014.0
20260904161000 92 131 0.0 1.0 0.00 0.00 0.00 70 1014.0
20260904160455 89 32 0.0 1.0 0.00 0.00 0.00 74 1014.1
20260904155950 89 148 2.0 2.0 0.00 0.00 0.00 73 1014.0
20260904155445 90 168 2.0 3.0 0.00 0.00 0.00 72 1014.0
20260904154943 90 222 3.0 5.0 0.00 0.00 0.00 74 1014.0
20260904154438 87 159 2.0 3.0 0.00 0.00 0.00 77 1014.0
20260904153933 88 116 2.0 3.0 0.00 0.00 0.00 76 1013.8
20260904153428 87 162 0.0 1.0 0.00 0.00 0.00 78 1013.9
20260904152925 87 122 0.0 0.0 0.00 0.00 0.00 78 1013.8